Regional Weather Roundup
Issued by NWS

Home | Current Version | Previous Version | Graphics & Text | Print | Product List | Glossary On
Versions: 1 2 3 4 5 6 7 8 9 10 11 12 13 14 15 16 17 18 19 20 21 22 23 24 25 26 27 28 29 30 31 32 33 34 35 36 37 38 39 40 41 42 43 44 45 46 47 48 49
000
ASUS45 KBOI 071510
RWRID

IDAHO REGIONAL WEATHER ROUNDUP
NATIONAL WEATHER SERVICE BOISE ID
800 AM MST SUN FEB 07 2016

NOTE: "FAIR" INDICATES FEW OR NO CLOUDS BELOW 12000 FEET
WITH NO SIGNIFICANT WEATHER AND/OR OBSTRUCTIONS TO VISIBILITY

IDZ012-014-071600-
SOUTHWEST IDAHO


CITY           SKY/WX    TMP DP  RH WIND       PRES   REMARKS
BOISE          CLOUDY    29  27  92 CALM      30.57R FOG
CALDWELL       CLOUDY    27  27 100 CALM      30.61R FOG
MOUNTAIN HOME  DRIZZLE   25  25 100 CALM      30.57R FOG
$$

IDZ016-017-071600-
SOUTHCENTRAL IDAHO


CITY           SKY/WX    TMP DP  RH WIND       PRES   REMARKS
BURLEY         CLEAR     25  22  88 CALM      30.51R
JEROME         PTCLDY    28  26  92 SW5       30.52R FOG     WCI  23
TWIN FALLS     CLEAR     33  26  75 S10       30.52R WCI  25
$$

IDZ019>023-071600-
SOUTHEAST IDAHO


CITY           SKY/WX    TMP DP  RH WIND       PRES   REMARKS
IDAHO FALLS    FOG       19  16  88 NE8       30.54R VSB 1/2 WCI   9
POCATELLO      PTCLDY    20  18  92 N7        30.53R WCI  11
REXBURG        CLOUDY    18  16  92 CALM      30.52R FOG
$$

IDZ006-010-011-018-031-032-071600-
CENTRAL IDAHO MOUNTAINS


CITY           SKY/WX    TMP DP  RH WIND       PRES   REMARKS
MCCALL         CLEAR     13  10  88 CALM      30.51R
STANLEY          N/A      6   3  87 CALM      30.53R
SALMON         CLOUDY     7   1  78 CALM      30.55R
CHALLIS        CLEAR     10   6  84 W5        30.51R WCI   2
$$

IDZ002-004-006-007-026-071600-
NORTHERN IDAHO


CITY           SKY/WX    TMP DP  RH WIND       PRES   REMARKS
LEWISTON       CLEAR     29  26  89 SE3       30.60R
LOWELL           N/A     33  30  88 CALM      30.67R
COEUR D`ALENE  CLOUDY    27  23  86 CALM      30.55R
MULLAN PASS    CLEAR     20  15  81 SW7       30.43R WCI  11
$$



USA.gov is the U.S. government's official web portal to all federal, state and local government web resources and services.